Wind_Speed
17 18 19 20 21 23 25 27 26 29 30 25 21 16 10 6 9 10 12 15 15 24 26 25 27 20 4 4 6 5 2 3 7 4 10 8 7 6 7 5 6 7 6 6 6 6 7
17 17 18 19 21 22 25 27 26 29 30 27 25 21 16 12 16 24 27 24 20 23 28 26 29 22 5 6 6 7 2 7 8 7 12 11 5 1 7 6 5 6 8 7 5 6 4
17 17 16 18 20 21 23 24 27 27 29 27 22 21 20 19 25 28 26 24 24 22 21 24 21 12 7 7 7 7 3 6 7 4 2 11 7 3 7 6 7 9 7 6 5 3 3
16 16 16 16 18 20 21 21 23 24 27 26 23 23 26 27 25 23 23 23 26 24 23 21 11 10 3 5 9 11 7 8 7 6 10 7 13 5 4 8 4 3 4 4 3 4 1
14 15 15 16 16 17 18 18 20 23 26 21 20 22 22 25 25 21 20 19 17 21 16 8 7 5 3 4 5 11 9 11 10 8 6 4 1 4 4 6 4 2 3 4 3 3 3
13 13 14 14 15 15 16 16 17 20 24 19 15 18 18 16 17 16 14 15 21 11 15 9 13 5 6 4 3 4 6 4 4 7 4 2 2 3 3 3 3 4 3 4 4 2 1
14 13 12 13 13 14 14 14 14 17 21 19 12 13 15 12 11 8 7 2 2 5 12 6 1 5 4 7 2 9 8 1 5 4 4 3 6 4 8 7 2 3 6 6 3 1 2
14 13 13 12 12 11 10 11 12 14 17 18 11 7 8 11 21 11 10 5 4 3 7 6 3 3 2 6 5 14 15 2 3 5 6 5 6 6 3 1 6 6 8 4 2 1 1
15 14 14 12 11 9 7 7 8 9 12 15 13 8 8 11 10 15 19 8 3 6 4 4 2 4 3 8 6 7 12 6 5 5 8 6 4 2 2 6 8 6 5 3 1 3 3
15 16 14 13 12 10 6 3 4 6 8 11 11 8 9 9 3 6 5 9 6 4 4 7 5 4 4 3 5 5 7 2 8 9 9 7 1 1 9 6 5 4 2 1 3 4 1
15 16 17 15 14 12 10 6 4 4 6 8 10 9 8 10 3 4 5 7 6 2 4 5 3 3 3 2 5 3 3 6 8 4 1 1 4 8 7 3 5 4 1 3 2 2 3
14 16 17 18 16 14 11 8 5 5 4 6 8 9 7 5 2 3 8 6 1 1 3 2 1 1 3 5 2 3 2 5 0 10 12 5 1 4 3 4 7 5 2 0 2 1 2
14 15 18 19 19 15 13 10 5 5 5 4 5 7 7 4 3 9 8 3 3 5 2 4 2 2 6 3 4 3 3 3 2 5 4 3 3 2 2 2 3 4 1 2 3 2 4
15 16 17 19 21 20 14 10 6 5 5 2 2 3 4 4 4 6 3 0 6 3 3 2 3 2 3 5 2 2 3 3 4 3 4 4 3 3 2 3 3 3 2 3 4 1 3
14 17 18 20 23 22 18 10 4 2 4 3 2 3 1 5 4 3 3 4 4 2 4 5 3 3 2 2 1 2 6 3 4 6 3 4 1 2 2 3 4 1 1 1 4 2 2
14 16 19 21 24 25 19 13 6 2 3 6 1 3 1 5 3 2 2 4 2 5 4 1 2 2 3 3 2 2 4 2 3 4 5 2 4 1 3 3 1 2 1 2 2 1 3
14 15 17 20 22 24 20 14 7 3 3 7 1 2 3 2 2 2 3 4 5 2 5 6 4 1 5 3 3 1 4 1 2 2 5 1 3 3 0 5 5 2 1 2 1 3 3
14 13 15 18 21 22 23 14 7 5 6 0 4 1 1 1 1 3 3 3 2 2 0 2 2 6 4 2 1 3 3 5 6 3 2 3 2 3 1 3 5 3 3 6 3 3 3
11 14 14 15 18 20 21 17 7 3 2 2 2 2 1 3 2 3 3 3 3 2 2 1 2 4 3 2 1 3 6 2 3 3 4 4 2 1 1 1 1 4 4 3 3 3 4
11 15 12 14 15 17 19 20 11 3 1 2 3 2 1 3 2 6 5 3 3 2 2 1 2 2 3 3 2 3 4 1 2 4 2 3 3 2 3 2 2 3 5 8 5 3 3
9 12 13 13 14 15 16 17 19 4 2 1 1 2 2 0 3 4 4 3 5 3 1 2 2 4 2 3 3 3 5 4 3 4 2 1 3 2 4 7 6 6 7 9 12 13 6
9 10 11 13 13 12 14 16 17 12 1 1 2 1 2 2 2 3 2 2 3 1 3 3 2 4 1 3 4 1 5 5 4 4 2 2 2 4 5 7 5 8 10 13 15 17 16
11 10 10 10 12 13 13 14 14 15 4 3 1 2 2 1 2 3 2 4 4 5 1 5 3 3 4 3 4 4 3 2 2 6 5 4 2 1 4 3 6 9 15 15 9 7 9
13 12 11 11 9 11 13 13 14 12 8 3 3 3 1 2 2 1 3 1 4 1 2 4 2 3 2 3 2 2 2 3 4 3 3 4 2 1 4 4 3 5 3 3 8 2 7
16 13 13 11 11 8 9 12 13 13 10 7 4 3 2 1 3 2 3 4 4 3 2 1 3 3 2 2 2 2 2 2 5 3 0 3 2 1 2 3 8 4 1 1 3 3 3
19 15 13 13 12 9 8 9 11 13 11 5 10 4 3 2 2 4 5 4 2 5 3 3 2 3 1 2 1 3 4 4 3 2 0 4 3 1 2 2 4 1 3 3 4 3 4
18 18 15 14 13 11 6 7 8 10 12 5 5 9 1 2 2 4 2 3 2 2 2 3 5 3 2 2 2 4 3 2 3 5 5 3 3 5 4 3 7 4 5 1 2 4 5
17 21 17 15 13 11 9 8 7 7 9 8 4 9 3 1 1 4 5 1 1 2 2 3 3 1 2 2 3 3 1 3 1 4 6 6 6 4 4 5 8 5 3 5 4 5 5
22 21 20 17 14 11 10 9 8 7 7 6 3 9 6 2 1 1 1 1 3 3 1 3 1 2 3 2 1 1 1 2 3 3 2 4 5 4 8 5 3 5 3 5 3 3 3
Wind_Direction
24 23 22 20 22 20 18 15 20 19 20 16 31 34 37 59 87 110 116 130 143 131 128 123 123 137 236 206 46 354 350 141 157 172 221 165 178 170 162 127 125 89 103 76 97 68 41
28 23 24 23 24 22 24 22 25 23 25 28 37 51 63 75 95 104 101 102 112 122 123 128 136 149 272 99 340 6 76 126 152 211 215 200 189 94 70 62 27 100 100 114 98 93 73
28 25 25 22 25 23 26 29 27 28 28 29 37 49 67 85 99 98 91 94 97 112 129 126 129 118 19 32 4 23 89 117 155 273 99 30 71 42 114 99 89 136 100 115 43 17 76
26 23 25 26 24 21 27 29 30 30 28 34 52 55 71 79 90 94 88 93 102 110 115 111 96 99 51 3 37 36 113 102 79 74 96 76 94 62 67 131 111 139 156 123 26 355 112
28 23 24 26 24 23 27 30 37 37 32 39 60 65 80 80 82 89 80 88 107 97 117 126 43 66 66 352 26 15 13 112 112 103 91 87 65 109 156 144 86 223 169 146 123 29 350
23 26 20 25 26 25 29 34 40 39 32 39 57 67 83 74 72 72 81 87 83 71 92 111 16 65 15 15 4 35 16 28 107 135 137 186 136 128 157 92 154 182 110 119 129 30 290
19 17 18 21 26 27 30 34 42 36 38 40 47 79 81 43 3 357 46 18 65 28 37 77 315 68 33 323 61 38 355 257 162 191 111 291 81 91 70 43 319 275 113 125 92 72 343
14 16 13 11 17 27 33 43 44 34 34 47 47 67 63 60 48 55 50 61 30 353 70 91 197 99 15 310 78 13 360 192 218 92 127 51 67 28 25 286 51 26 102 52 115 226 220
14 17 11 7 5 7 34 39 38 33 32 35 55 29 15 347 24 48 63 50 351 350 111 97 81 34 324 335 41 10 351 345 106 111 101 83 72 267 187 54 79 37 59 64 31 270 150
14 11 13 6 3 355 349 358 3 7 15 30 40 26 355 345 51 4 58 354 358 356 86 359 10 46 320 315 69 27 353 341 17 87 93 78 290 188 67 59 348 114 10 55 354 24 212
17 12 8 8 3 355 336 314 296 315 347 1 13 9 8 24 1 43 322 336 332 299 72 346 29 321 302 56 150 64 348 38 62 92 146 264 51 50 61 21 326 123 231 31 354 347 32
15 16 9 8 5 357 348 322 288 275 298 329 346 352 2 6 345 344 330 327 204 214 96 124 303 177 120 71 68 149 127 43 215 72 67 93 197 25 60 64 35 137 173 269 246 96 29
10 13 11 8 4 0 354 343 291 268 276 303 330 351 2 5 339 323 338 286 5 59 253 124 97 72 82 72 84 50 80 57 73 80 32 78 43 108 324 171 165 248 157 360 12 8 221
7 7 13 9 4 360 355 349 330 248 261 284 329 8 358 352 321 323 296 265 61 327 63 338 158 81 75 352 46 151 188 106 34 29 130 136 329 21 3 25 332 35 13 147 187 224 281
7 5 6 11 9 5 359 355 344 285 215 230 336 11 294 300 330 350 277 50 148 253 127 149 216 94 82 106 30 206 27 69 41 5 109 120 86 139 10 336 346 122 187 342 103 30 60
2 5 5 10 10 10 15 15 29 355 146 162 336 262 64 318 327 302 53 100 81 17 348 241 59 305 124 116 185 231 170 0 102 9 334 84 98 279 122 255 146 339 206 73 345 86 278
351 1 4 6 10 10 12 22 34 37 123 153 259 255 335 333 11 244 87 79 111 71 347 358 22 77 84 135 304 139 100 83 17 95 312 321 134 151 99 202 167 150 219 247 26 148 181
345 355 2 2 6 12 13 20 46 78 103 211 289 261 301 172 292 88 45 64 322 79 289 53 326 359 71 104 42 69 105 44 30 338 359 64 327 158 162 54 17 330 278 181 134 210 231
328 340 351 359 0 7 14 16 35 104 29 323 271 96 226 162 78 81 154 86 48 160 42 29 92 4 325 65 78 65 75 17 20 2 22 5 295 66 315 41 120 250 210 281 356 72 225
313 326 343 355 360 2 8 15 10 3 343 324 294 3 143 223 254 119 133 118 105 4 78 350 95 249 189 144 358 133 117 162 89 66 347 334 325 210 182 181 147 212 218 196 199 154 228
299 320 329 343 357 4 5 8 12 359 332 6 260 86 355 94 41 54 16 164 140 157 312 283 147 298 330 141 160 142 103 147 188 160 204 307 239 44 277 275 262 231 247 205 208 220 196
286 302 319 327 345 358 5 8 10 9 50 68 346 304 207 87 299 212 142 164 179 96 168 179 274 135 192 332 45 82 161 185 179 157 220 151 274 36 294 250 244 260 247 237 235 227 243
280 286 303 316 335 347 359 6 11 15 10 331 340 243 287 182 172 287 60 136 151 139 22 1 353 174 213 52 15 40 31 47 30 153 201 166 186 75 275 22 305 283 246 225 231 232 216
263 275 287 302 315 339 349 359 8 16 28 21 349 298 275 133 291 61 141 110 153 148 68 116 265 295 91 84 52 5 34 342 292 207 7 180 176 141 258 319 255 236 101 297 209 175 203
253 261 275 285 297 326 345 352 2 9 22 52 21 329 327 171 93 137 174 142 119 135 145 106 75 30 177 221 241 213 203 227 213 41 355 287 222 266 172 249 284 185 214 27 120 193 19
244 256 261 273 282 294 334 347 355 4 11 35 28 18 308 330 231 102 164 192 222 170 139 115 85 6 303 242 222 244 222 191 177 138 328 304 349 184 160 228 256 100 122 2 357 204 91
249 246 251 264 269 283 310 334 348 356 2 8 26 19 338 318 47 340 198 174 156 36 82 130 161 156 348 206 230 225 240 54 196 187 156 152 218 210 242 278 288 120 142 156 149 198 128
246 239 242 250 258 265 286 310 326 348 358 359 344 17 30 341 62 3 353 312 129 248 184 135 98 263 151 210 210 238 236 200 248 149 172 169 162 190 189 207 254 144 97 191 163 132 136
239 239 239 239 237 244 262 290 308 322 349 5 327 344 347 247 252 75 68 4 17 356 2 158 180 139 201 203 273 56 237 180 249 256 206 218 197 187 187 216 139 172 111 97 98 127 122
Height
809 807 804 800 795 791 788 783 778 772 765 758 753 750 748 747 746 747 749 750 755 760 764 765 768 777 779 775 778 778 777 776 778 778 777 774 777 779 788 787 788 800 803 804 806 806 808
811 808 805 802 798 794 791 786 782 777 771 764 758 755 752 751 751 752 754 756 758 762 766 770 775 778 778 779 779 777 777 776 778 779 776 774 774 775 783 789 794 798 804 808 808 810 811
813 810 807 804 801 797 793 790 787 781 776 771 766 761 757 759 759 760 762 762 764 765 768 773 777 774 776 782 779 778 778 777 777 777 776 774 774 777 785 797 796 803 813 811 812 811 815
815 812 809 806 803 800 796 793 789 785 781 777 774 770 769 769 768 768 769 769 769 770 773 774 774 777 784 782 780 779 780 780 779 779 780 780 780 783 787 793 799 802 806 819 817 813 817
817 813 810 808 805 802 799 796 793 791 787 784 781 779 777 776 776 776 776 776 775 776 777 778 778 777 784 783 783 782 781 781 781 782 783 783 783 791 792 800 812 807 818 810 822 816 818
819 815 812 810 807 804 801 798 797 794 792 790 787 786 784 783 782 782 780 780 781 781 782 778 778 783 786 789 786 785 784 781 782 783 785 785 787 796 796 806 834 814 808 807 816 825 818
820 817 814 811 808 805 803 801 799 798 796 795 792 790 790 788 787 784 783 783 785 789 788 791 796 790 791 788 786 786 785 782 782 783 794 789 806 817 809 805 803 795 801 813 821 823 825
821 818 816 812 810 807 805 803 802 801 799 797 796 794 792 791 790 787 785 788 795 796 793 791 792 792 791 789 787 788 785 786 785 796 791 803 824 815 807 802 802 802 812 823 823 822 823
821 819 817 814 811 808 806 805 804 802 801 800 798 797 797 794 792 792 791 795 796 795 793 797 795 794 795 792 795 795 790 786 789 795 799 809 820 814 808 812 817 827 824 827 830 821 821
822 820 818 815 812 808 806 806 805 804 802 801 800 799 797 795 796 795 798 797 796 797 803 806 798 798 795 793 799 797 796 797 796 806 809 819 818 812 820 824 823 827 826 826 826 835 847
823 820 818 815 812 809 805 805 805 804 803 801 800 799 798 797 798 798 801 798 796 797 808 804 799 797 793 794 799 800 798 794 805 806 809 829 822 821 827 831 824 832 828 828 828 829 837
824 821 818 815 812 809 806 803 803 803 804 803 800 799 797 798 798 799 797 797 798 798 820 805 799 798 796 795 797 797 798 799 804 811 817 827 825 828 828 828 826 829 829 830 830 834 862
826 822 819 815 812 809 806 803 801 801 802 803 802 800 799 799 799 797 796 796 800 811 810 805 803 795 796 798 800 798 801 808 813 832 842 824 831 831 828 827 828 830 835 857 854 853 855
827 824 820 816 812 808 805 803 800 800 800 801 802 801 800 799 798 797 797 794 810 809 802 800 799 797 802 803 804 802 803 813 806 804 835 843 857 833 831 832 833 827 831 855 850 857 856
827 825 822 817 813 808 804 802 800 799 800 801 801 801 802 800 798 798 798 807 822 803 800 801 799 800 805 803 803 801 808 811 814 813 819 844 843 836 834 832 835 829 841 832 848 858 875
828 825 822 819 814 809 804 802 800 799 799 801 802 801 800 800 798 798 799 809 809 804 800 796 798 800 803 805 805 804 808 814 816 816 814 815 844 832 835 834 834 834 832 845 855 859 847
829 826 823 820 816 811 806 802 801 800 800 802 803 800 801 799 799 797 809 809 809 808 805 804 801 800 799 805 802 801 808 817 813 816 815 811 819 840 835 837 831 839 837 835 835 840 858
831 827 824 821 817 813 809 804 802 802 803 804 801 800 801 800 799 795 807 802 809 808 805 805 803 803 800 802 803 803 809 815 814 813 814 819 818 847 827 830 828 829 824 827 844 839 844
831 829 825 822 819 815 811 807 805 804 804 804 799 797 801 802 802 808 805 808 806 806 807 806 807 807 806 805 812 809 815 819 818 817 825 820 824 844 837 838 833 834 826 823 823 835 844
830 829 826 824 821 817 814 809 806 804 804 804 801 805 799 798 794 798 802 805 811 811 810 808 807 806 807 809 809 814 819 822 822 822 825 824 824 827 838 829 824 831 825 827 829 862 838
829 828 827 825 822 819 815 812 808 805 804 805 800 805 805 803 802 800 799 801 807 811 810 809 809 807 805 809 810 812 816 824 823 826 824 825 831 829 826 825 822 822 822 823 829 824 830
827 828 827 825 823 820 817 814 810 807 805 804 804 802 804 804 804 800 807 803 804 810 808 809 809 806 806 808 812 810 813 815 817 826 824 825 834 831 848 820 819 823 818 816 813 813 813
825 826 826 824 823 821 819 816 813 809 807 804 803 803 804 807 802 804 804 804 804 806 811 809 808 809 812 812 812 813 814 814 814 820 826 827 833 842 836 819 823 829 804 805 804 803 805
822 823 824 824 822 821 820 817 815 811 808 807 807 805 802 805 805 801 803 804 806 807 808 810 811 811 819 816 816 816 816 818 817 816 819 824 827 837 853 829 843 797 797 798 794 796 801
820 820 821 822 821 820 819 818 816 813 810 808 808 808 804 800 800 805 805 804 808 811 810 810 814 818 817 817 819 820 824 822 819 823 823 826 826 843 854 843 810 795 796 797 796 803 800
817 817 818 820 820 820 819 817 817 815 812 809 809 808 807 807 803 796 803 805 807 809 815 815 819 820 818 818 820 818 816 808 829 835 833 833 832 839 834 841 821 796 798 796 797 814 806
812 814 816 817 818 819 818 817 816 815 815 813 810 809 808 807 804 803 803 805 801 803 809 813 818 820 820 823 823 818 814 807 817 820 841 842 841 843 841 839 814 798 799 798 807 812 806
807 810 811 814 816 818 818 817 816 814 814 815 814 811 810 808 806 807 807 805 805 805 804 815 819 820 823 822 816 810 815 812 809 806 819 825 834 838 833 830 826 796 801 802 801 803 805
802 805 807 809 812 814 816 817 816 815 814 814 815 813 811 811 809 808 809 810 811 811 808 808 811 808 809 815 812 811 813 811 807 805 799 814 801 806 807 803 791 793 795 799 800 804 808